DW3195 Weather Reports


time (UTC)temp
F
wind
direction
speed
knots
gust
knots
rain 1hr
in
rain 24hr
in
rain mn
in
humidity
%
barometer
mb
20260508230006 67 283 1.7 6.1 0.00 0.05 0.00 38 921.8
20260508224505 67 290 2.6 6.1 0.00 0.05 0.00 35 921.7
20260508223505 67 293 3.5 6.1 0.00 0.05 0.00 35 921.5
20260508223008 67 320 1.7 5.2 0.00 0.05 0.00 35 921.5
20260508221507 67 139 0.0 0.0 0.00 0.05 0.00 33 921.3
20260508221006 67 139 0.0 0.0 0.00 0.05 0.00 37 921.4
20260508220006 67 139 0.0 0.0 0.00 0.05 0.00 38 921.4
20260508213005 67 139 0.0 0.0 0.00 0.05 0.00 40 921.5
20260508211506 69 139 0.0 0.0 0.00 0.05 0.00 39 921.5
20260508211006 68 139 0.0 0.0 0.00 0.05 0.00 40 921.7
20260508210506 67 139 0.0 0.0 0.00 0.05 0.00 41 921.8
20260508210005 67 139 0.0 0.0 0.00 0.05 0.00 40 921.9
20260508204505 68 139 0.0 0.0 0.00 0.05 0.00 40 921.9
20260508204006 68 139 0.0 0.0 0.00 0.05 0.00 39 922.0
20260508203507 68 139 0.0 0.0 0.00 0.05 0.00 39 922.1
20260508203005 68 139 0.0 0.0 0.00 0.05 0.00 40 922.2
20260508201506 66 139 0.0 0.0 0.00 0.05 0.00 38 922.5
20260508201006 66 139 0.0 0.0 0.00 0.05 0.00 41 922.6
20260508200506 66 139 0.0 0.0 0.00 0.05 0.00 39 922.6
20260508200005 66 139 0.0 0.0 0.00 0.05 0.00 40 922.7
20260508194506 67 139 0.0 0.0 0.00 0.05 0.00 38 922.9
20260508194006 67 139 0.0 0.0 0.00 0.05 0.00 41 922.8
20260508193506 66 139 0.0 0.0 0.00 0.05 0.00 39 922.9
20260508193005 66 139 0.0 0.0 0.00 0.05 0.00 41 922.9
20260508191505 66 139 0.0 0.0 0.00 0.05 0.00 39 923.0
20260508191006 66 139 0.0 0.0 0.00 0.05 0.00 37 923.1
20260508190506 66 139 0.0 0.0 0.00 0.05 0.00 40 923.1
20260508190005 66 139 0.0 0.0 0.00 0.05 0.00 42 923.1
20260508184505 65 139 0.0 0.0 0.00 0.05 0.00 38 923.2
20260508184005 65 139 0.0 0.0 0.00 0.05 0.00 41 923.4
20260508183505 65 139 0.0 0.0 0.00 0.05 0.00 41 923.4
20260508183005 65 139 0.0 0.0 0.00 0.05 0.00 43 923.4
20260508181505 64 139 0.0 0.0 0.00 0.05 0.00 41 923.7
20260508180505 64 139 0.0 0.0 0.00 0.05 0.00 46 923.8
20260508180005 63 139 0.0 0.0 0.00 0.05 0.00 45 923.8
20260508174505 64 139 0.0 0.0 0.00 0.05 0.00 42 923.9
20260508173505 64 139 0.0 0.0 0.00 0.05 0.00 44 924.2
20260508173005 64 139 0.0 0.0 0.00 0.05 0.00 43 924.1
20260508171005 63 139 0.0 0.0 0.00 0.05 0.00 45 924.5
20260508170505 63 139 0.0 0.0 0.00 0.05 0.00 45 924.6
20260508170006 63 139 0.0 0.0 0.00 0.05 0.00 46 924.7
20260508164005 62 139 0.0 0.0 0.00 0.05 0.00 44 925.0
20260508163505 61 139 0.0 0.0 0.00 0.05 0.00 41 925.0
20260508163006 61 139 0.0 0.0 0.00 0.05 0.00 44 925.1
20260508161506 60 139 0.0 0.0 0.00 0.05 0.00 43 925.3
20260508161006 60 139 0.0 0.0 0.00 0.05 0.00 43 925.3
20260508160506 61 139 0.0 0.0 0.00 0.05 0.00 40 925.4
20260508160006 60 139 0.0 0.0 0.00 0.05 0.00 44 925.5
20260508154006 60 139 0.0 0.0 0.00 0.05 0.00 42 925.6
20260508153506 59 139 0.0 0.0 0.00 0.05 0.00 40 925.6
20260508153006 60 139 0.0 0.0 0.00 0.05 0.00 42 925.7
20260508151006 59 139 0.0 0.0 0.00 0.05 0.00 49 925.6
20260508150507 59 139 0.0 0.0 0.00 0.05 0.00 49 925.7
20260508150007 59 139 0.0 0.0 0.00 0.05 0.00 50 925.6
20260508144506 58 139 0.0 0.0 0.00 0.05 0.00 46 925.5
20260508143007 58 139 0.0 0.0 0.00 0.05 0.00 52 925.6
20260508141506 56 139 0.0 0.0 0.00 0.05 0.00 48 925.6
20260508141006 56 139 0.0 0.0 0.00 0.05 0.00 52 925.7
20260508140506 56 139 0.0 0.0 0.00 0.05 0.00 55 925.7
20260508140006 55 139 0.0 0.0 0.00 0.05 0.00 54 925.8
20260508134506 54 139 0.0 0.0 0.00 0.05 0.00 57 925.8
20260508134005 53 139 0.0 0.0 0.00 0.05 0.00 60 925.8
20260508133006 52 139 0.0 0.0 0.00 0.05 0.00 60 925.7
20260508131006 47 139 0.0 0.0 0.00 0.05 0.00 80 925.6
20260508130506 46 139 0.0 0.0 0.00 0.05 0.00 92 925.6
20260508130005 45 139 0.0 0.0 0.00 0.05 0.00 96 925.6
20260508124506 42 139 0.0 0.0 0.00 0.05 0.00 100 925.6
20260508124005 41 139 0.0 0.0 0.00 0.05 0.00 100 925.6
20260508123006 38 139 0.0 0.0 0.00 0.05 0.00 100 925.5
20260508121506 33 139 0.0 0.0 0.00 0.05 0.00 99 925.4
20260508121006 32 139 0.0 0.0 0.00 0.05 0.00 99 925.4
20260508120506 32 139 0.0 0.0 0.00 0.05 0.00 99 925.4
20260508120005 31 139 0.0 0.0 0.00 0.05 0.00 99 925.3
20260508113506 30 139 0.0 0.0 0.00 0.05 0.00 99 925.3
20260508111506 29 139 0.0 0.0 0.00 0.05 0.00 99 925.1
20260508111005 29 139 0.0 0.0 0.00 0.06 0.00 99 925.1
20260508104506 29 139 0.0 0.0 0.00 0.06 0.00 99 924.9
20260508104006 29 139 0.0 0.0 0.00 0.06 0.00 99 924.8
20260508103506 29 139 0.0 0.0 0.00 0.06 0.00 99 924.8
20260508103005 29 139 0.0 0.0 0.00 0.06 0.00 99 924.7
20260508101005 30 139 0.0 0.0 0.00 0.06 0.00 99 924.7
20260508100505 30 139 0.0 0.0 0.00 0.08 0.00 99 924.7
20260508100005 30 139 0.0 0.0 0.00 0.13 0.00 99 924.6
20260508094505 30 139 0.0 0.0 0.00 0.14 0.00 99 924.5
20260508094005 30 139 0.0 0.0 0.00 0.14 0.00 99 924.5
20260508093505 30 139 0.0 0.0 0.00 0.14 0.00 99 924.5
20260508093005 31 139 0.0 0.0 0.00 0.14 0.00 99 924.5
20260508091505 31 139 0.0 0.0 0.00 0.14 0.00 99 924.5
20260508091005 31 139 0.0 0.0 0.00 0.14 0.00 99 924.5
20260508090505 31 139 0.0 0.0 0.00 0.14 0.00 99 924.4
20260508090005 31 139 0.0 0.0 0.00 0.14 0.00 99 924.3
20260508084505 31 139 0.0 0.0 0.00 0.14 0.00 99 924.3
20260508084005 31 139 0.0 0.0 0.00 0.14 0.00 99 924.4
20260508083504 31 139 0.0 0.0 0.00 0.14 0.00 99 924.3
20260508083005 31 139 0.0 0.9 0.00 0.14 0.00 99 924.3
20260508081505 31 341 0.0 0.9 0.00 0.14 0.00 99 924.3
20260508081005 31 337 0.0 0.9 0.00 0.14 0.00 99 924.2
20260508080505 31 356 0.0 0.9 0.00 0.14 0.00 98 924.1
20260508080005 31 10 0.0 0.9 0.00 0.14 0.00 98 924.1
20260508074005 31 48 0.0 0.9 0.00 0.14 0.00 98 924.2
20260508073004 31 15 0.0 0.9 0.00 0.14 0.00 98 924.2
20260508071007 32 157 0.0 0.9 0.00 0.14 0.00 98 924.0
20260508070507 32 37 0.0 0.9 0.00 0.14 0.00 98 924.1
20260508070007 32 187 0.0 0.9 0.00 0.14 0.00 98 924.0
20260508064506 32 4 0.9 0.9 0.00 0.14 0.00 98 924.0
20260508064006 32 36 0.0 0.9 0.00 0.14 0.00 98 924.0
20260508063507 33 21 0.0 1.7 0.00 0.14 0.00 98 924.0
20260508063006 33 11 0.0 0.9 0.00 0.14 0.00 98 924.0
20260508061506 33 313 0.0 2.6 0.00 0.14 0.00 98 924.1
20260508061006 34 12 0.9 2.6 0.00 0.14 0.00 98 924.3
20260508060508 34 67 0.0 0.9 0.00 0.14 0.00 98 924.3
20260508060006 34 355 0.0 2.6 0.00 0.14 0.00 98 924.3
20260508054506 34 208 0.0 0.9 0.00 0.14 0.00 98 924.4
20260508053506 34 354 0.0 1.7 0.00 0.14 0.00 98 924.5
20260508053006 35 283 0.0 0.9 0.00 0.14 0.00 98 924.4
20260508051506 35 45 0.0 0.9 0.00 0.14 0.00 98 924.2
20260508051006 35 72 0.0 0.9 0.00 0.14 0.00 98 924.2
20260508050506 35 19 0.9 1.7 0.00 0.15 0.00 98 924.1
20260508044505 36 142 0.0 0.9 0.05 0.15 0.00 98 923.8
20260508044005 36 346 0.0 0.9 0.05 0.15 0.00 97 923.8
20260508043506 36 12 0.0 0.9 0.05 0.16 0.00 97 923.7
20260508043007 36 60 0.9 1.7 0.05 0.16 0.00 97 923.6
20260508041006 38 26 0.0 0.9 0.05 0.16 0.00 97 923.7
20260508040506 38 77 0.0 0.9 0.05 0.16 0.00 97 923.8
20260508040005 38 14 0.0 0.9 0.00 0.11 0.00 97 923.8
20260508034505 39 352 0.0 0.9 0.00 0.11 0.05 97 923.7
20260508034006 39 12 0.9 1.7 0.00 0.11 0.05 97 923.6
20260508033506 39 27 0.9 0.9 0.00 0.11 0.05 97 923.6
20260508033005 39 0 0.9 1.7 0.00 0.11 0.05 97 923.6
20260508031505 39 56 0.0 1.7 0.00 0.11 0.05 97 923.5
20260508031006 39 14 0.9 1.7 0.00 0.11 0.05 97 923.5
20260508030506 39 221 0.9 1.7 0.00 0.11 0.05 96 923.6
20260508030005 39 58 0.9 1.7 0.00 0.15 0.05 96 923.5
20260508024505 39 160 0.0 0.9 0.00 0.15 0.05 96 923.4
20260508024006 39 11 0.0 0.9 0.00 0.15 0.05 96 923.3
20260508023505 39 32 0.9 1.7 0.00 0.15 0.05 96 923.2
20260508023005 40 19 0.0 1.7 0.00 0.15 0.05 96 923.1
20260508021505 40 17 0.0 1.7 0.00 0.16 0.05 96 923.0
20260508021005 40 2 0.0 1.7 0.00 0.17 0.05 95 922.9
20260508020505 41 29 0.9 1.7 0.00 0.17 0.05 95 922.9
20260508014505 41 2 0.0 1.7 0.00 0.29 0.05 95 922.6
20260508014005 42 39 0.9 2.6 0.00 0.29 0.05 95 922.6
20260508013505 42 17 0.9 1.7 0.00 0.29 0.05 94 922.5
20260508013005 42 359 0.0 1.7 0.00 0.35 0.05 94 922.5
20260508011505 43 46 0.0 0.9 0.00 0.36 0.05 93 922.2
20260508010005 44 101 0.0 1.7 0.00 0.37 0.05 92 922.1
20260508004505 45 103 0.9 1.7 0.00 0.37 0.05 91 922.0
20260508003005 46 26 0.0 1.7 0.00 0.51 0.05 88 921.8
20260508001004 49 67 0.9 2.6 0.00 0.51 0.05 84 921.8
20260508000505 49 349 1.7 2.6 0.00 0.69 0.05 83 921.8
20260508000005 50 11 1.7 4.3 0.00 0.69 0.05 81 921.8
20260507234505 51 287 1.7 4.3 0.00 0.70 0.05 77 921.7
20260507234004 51 11 0.9 2.6 0.00 0.70 0.05 80 921.7
20260507233505 51 15 1.7 2.6 0.00 0.70 0.05 80 921.7
20260507233005 51 19 0.9 2.6 0.00 0.70 0.05 80 921.7
20260507231505 52 32 0.9 1.7 0.00 0.70 0.05 79 921.6
20260507231004 52 215 0.0 1.7 0.00 0.70 0.05 78 921.5